User: anonymous   Login
Location: Napier
(39.4830°S, 176.9170°E)
Time: 12:49:19
(UTC+13:00)
Language:

Resurs 1-3 - Orbit

View from above orbital plane
View from above orbital plane
View from above satellite
View from above satellite

Ground track
Ground track

The orbit data is extracted from the following two-line orbital elements,

1 23342U 94074A   19076.73058910 +.00000030 +00000-0 +11075-4 0  9995
2 23342 097.9942 124.8782 0001339 118.9371 241.1975 14.79379905311912
Epoch (UTC): 17 March 2019 17:32:02
Eccentricity: 0.0001339
inclination: 97.9942°
perigee height: 630 km
apogee height: 632 km
right ascension of ascending node: 124.8782°
argument of perigee: 118.9371°
revolutions per day: 14.79379905
mean anomaly at epoch: 241.1975°
orbit number at epoch: 31191

The dashed part of the orbit path shows where the satellite is in the earth's shadow,  

DLR